• In Portugal
  • List of Countries
  • For 7 days
  • Water Temperature
  • Satellite Maps
  • Weather Map
  • Weather Widgets
  • user-avatar
    Login

    Hourly Weather Borowno

    Today, 23 April, Monday

    Time Temperature Precipitation Wind Pressure Humidity
    00:00 +13°C° 0 mm 2 mps 717 mmHg 74%
    01:00 +13°C° 0 mm 2 mps 716 mmHg 71%
    02:00 +13°C° 0.2 mm 2 mps 716 mmHg 73%
    03:00 +13°C° 0.2 mm 2 mps 716 mmHg 75%
    04:00 +12°C° 0.2 mm 2 mps 715 mmHg 77%
    05:00 +13°C° 0 mm 2 mps 716 mmHg 77%
    06:00 +15°C° 0 mm 2 mps 716 mmHg 76%
    07:00 +16°C° 0 mm 2 mps 716 mmHg 75%
    08:00 +17°C° 0 mm 3 mps 716 mmHg 69%
    09:00 +19°C° 0 mm 3 mps 716 mmHg 63%
    10:00 +21°C° 0 mm 4 mps 716 mmHg 57%
    11:00 +22°C° 0.2 mm 4 mps 716 mmHg 55%
    12:00 +22°C° 0.2 mm 4 mps 716 mmHg 52%
    13:00 +23°C° 0.2 mm 5 mps 716 mmHg 49%
    14:00 +21°C° 0.5 mm 4 mps 716 mmHg 56%
    15:00 +20°C° 0.5 mm 4 mps 716 mmHg 63%
    16:00 +19°C° 0.5 mm 4 mps 716 mmHg 69%
    17:00 +18°C° 0.2 mm 3 mps 716 mmHg 74%
    18:00 +17°C° 0.2 mm 3 mps 716 mmHg 79%
    19:00 +15°C° 0.2 mm 2 mps 716 mmHg 84%
    20:00 +14°C° 0.1 mm 2 mps 716 mmHg 86%
    21:00 +14°C° 0.1 mm 2 mps 716 mmHg 89%
    22:00 +13°C° 0.1 mm 2 mps 716 mmHg 92%
    23:00 +12°C° 0 mm 2 mps 717 mmHg 92%

    Tomorrow, 24 April, Tuesday

    Time Temperature Precipitation Wind Pressure Humidity
    00:00 +10°C° 0 mm 2 mps 717 mmHg 92%
    01:00 +10°C° 0 mm 2 mps 717 mmHg 93%
    02:00 +9°C° 0 mm 2 mps 717 mmHg 93%
    03:00 +9°C° 0 mm 2 mps 718 mmHg 92%
    04:00 +8°C° 0 mm 2 mps 718 mmHg 92%
    05:00 +9°C° 0 mm 2 mps 718 mmHg 88%
    06:00 +10°C° 0 mm 2 mps 718 mmHg 83%
    07:00 +12°C° 0 mm 2 mps 719 mmHg 78%
    08:00 +13°C° 0 mm 3 mps 719 mmHg 72%
    09:00 +14°C° 0 mm 3 mps 719 mmHg 65%
    10:00 +15°C° 0 mm 4 mps 719 mmHg 59%
    11:00 +17°C° 0 mm 4 mps 719 mmHg 56%
    12:00 +18°C° 0 mm 4 mps 719 mmHg 53%
    13:00 +19°C° 0 mm 4 mps 718 mmHg 51%
    14:00 +19°C° 0 mm 4 mps 718 mmHg 50%
    15:00 +19°C° 0 mm 5 mps 717 mmHg 49%
    16:00 +19°C° 0 mm 5 mps 717 mmHg 48%
    17:00 +18°C° 0 mm 4 mps 717 mmHg 55%
    18:00 +16°C° 0 mm 3 mps 717 mmHg 61%
    19:00 +14°C° 0 mm 2 mps 717 mmHg 68%
    20:00 +13°C° 0 mm 2 mps 717 mmHg 70%
    21:00 +12°C° 0 mm 2 mps 717 mmHg 72%
    22:00 +10°C° 0 mm 2 mps 717 mmHg 74%
    23:00 +10°C° 0 mm 2 mps 717 mmHg 75%

    Day after tomorrow, 25 April, Wednesday

    Time Temperature Precipitation Wind Pressure Humidity
    00:00 +10°C° 0 mm 1 mps 717 mmHg 77%
    01:00 +10°C° 0 mm 1 mps 717 mmHg 78%
    02:00 +10°C° 0 mm 1 mps 716 mmHg 79%
    03:00 +10°C° 0 mm 1 mps 716 mmHg 80%
    04:00 +8°C° 0 mm 2 mps 716 mmHg 81%
    05:00 +10°C° 0 mm 2 mps 716 mmHg 78%
    06:00 +11°C° 0 mm 3 mps 716 mmHg 76%
    07:00 +12°C° 0 mm 4 mps 716 mmHg 73%
    08:00 +14°C° 0 mm 4 mps 716 mmHg 68%
    09:00 +16°C° 0 mm 5 mps 716 mmHg 63%
    10:00 +17°C° 0 mm 6 mps 716 mmHg 57%
    11:00 +19°C° 0 mm 6 mps 715 mmHg 55%
    12:00 +20°C° 0 mm 7 mps 715 mmHg 52%
    13:00 +21°C° 0 mm 7 mps 715 mmHg 50%
    14:00 +20°C° 0.1 mm 7 mps 715 mmHg 52%
    15:00 +20°C° 0.1 mm 6 mps 714 mmHg 55%
    16:00 +20°C° 0.1 mm 6 mps 714 mmHg 57%
    17:00 +17°C° 0.4 mm 5 mps 714 mmHg 65%
    18:00 +15°C° 0.4 mm 4 mps 713 mmHg 73%
    19:00 +13°C° 0.4 mm 4 mps 713 mmHg 80%
    20:00 +13°C° 0.1 mm 3 mps 714 mmHg 84%
    21:00 +12°C° 0.1 mm 3 mps 714 mmHg 87%
    22:00 +12°C° 0.1 mm 2 mps 715 mmHg 91%
    23:00 +10°C° 0 mm 2 mps 715 mmHg 92%

    26 April, Thursday

    Time Temperature Precipitation Wind Pressure Humidity
    00:00 +10°C° 0 mm 2 mps 715 mmHg 93%
    01:00 +9°C° 0 mm 2 mps 715 mmHg 94%
    02:00 +9°C° 0 mm 2 mps 715 mmHg 94%
    03:00 +9°C° 0 mm 2 mps 715 mmHg 95%
    04:00 +8°C° 0 mm 2 mps 716 mmHg 95%
    05:00 +9°C° 0.1 mm 2 mps 716 mmHg 91%
    06:00 +10°C° 0.1 mm 3 mps 716 mmHg 87%
    07:00 +11°C° 0.1 mm 3 mps 716 mmHg 83%
    08:00 +12°C° 0.1 mm 4 mps 716 mmHg 75%
    09:00 +13°C° 0.1 mm 5 mps 716 mmHg 67%
    10:00 +14°C° 0.1 mm 6 mps 717 mmHg 59%
    11:00 +14°C° 0 mm 6 mps 717 mmHg 56%
    12:00 +14°C° 0 mm 6 mps 717 mmHg 52%
    13:00 +15°C° 0 mm 7 mps 716 mmHg 49%
    14:00 +14°C° 0 mm 6 mps 717 mmHg 49%
    15:00 +14°C° 0 mm 6 mps 717 mmHg 50%
    16:00 +13°C° 0 mm 6 mps 717 mmHg 50%
    17:00 +12°C° 0 mm 5 mps 717 mmHg 55%
    18:00 +10°C° 0 mm 4 mps 717 mmHg 60%
    19:00 +9°C° 0 mm 3 mps 717 mmHg 65%
    20:00 +8°C° 0 mm 2 mps 718 mmHg 67%
    21:00 +7°C° 0 mm 2 mps 718 mmHg 69%
    22:00 +5°C° 0 mm 2 mps 718 mmHg 72%
    23:00 +5°C° 0 mm 2 mps 718 mmHg 72%

    27 April, Friday

    Time Temperature Precipitation Wind Pressure Humidity
    00:00 +5°C° 0 mm 2 mps 718 mmHg 73%
    01:00 +5°C° 0 mm 2 mps 718 mmHg 73%
    02:00 +4°C° 0 mm 2 mps 718 mmHg 74%
    03:00 +4°C° 0 mm 2 mps 718 mmHg 76%
    04:00 +4°C° 0 mm 2 mps 719 mmHg 77%
    05:00 +5°C° 0 mm 2 mps 719 mmHg 74%
    06:00 +6°C° 0 mm 2 mps 719 mmHg 70%
    07:00 +8°C° 0 mm 2 mps 719 mmHg 67%
    08:00 +9°C° 0 mm 2 mps 720 mmHg 61%
    09:00 +10°C° 0 mm 2 mps 720 mmHg 56%
    10:00 +13°C° 0 mm 2 mps 720 mmHg 50%
    11:00 +13°C° 0 mm 2 mps 720 mmHg 48%
    12:00 +14°C° 0 mm 1 mps 719 mmHg 46%
    13:00 +14°C° 0 mm 1 mps 719 mmHg 44%
    14:00 +14°C° 0 mm 1 mps 719 mmHg 44%
    15:00 +15°C° 0 mm 1 mps 718 mmHg 44%
    16:00 +15°C° 0 mm 1 mps 718 mmHg 45%
    17:00 +13°C° 0 mm 1 mps 718 mmHg 52%
    18:00 +12°C° 0 mm 2 mps 717 mmHg 60%
    19:00 +9°C° 0 mm 2 mps 717 mmHg 67%
    20:00 +8°C° 0 mm 2 mps 717 mmHg 70%
    21:00 +7°C° 0 mm 2 mps 717 mmHg 73%
    22:00 +7°C° 0 mm 2 mps 717 mmHg 76%
    23:00 +6°C° 0 mm 2 mps 717 mmHg 76%

    28 April, Saturday

    Time Temperature Precipitation Wind Pressure Humidity
    00:00 +6°C° 0 mm 2 mps 716 mmHg 77%
    01:00 +6°C° 0 mm 2 mps 716 mmHg 77%
    02:00 +5°C° 0 mm 2 mps 716 mmHg 76%
    03:00 +5°C° 0 mm 2 mps 715 mmHg 75%
    04:00 +5°C° 0 mm 2 mps 715 mmHg 74%
    05:00 +7°C° 0 mm 2 mps 715 mmHg 71%
    06:00 +8°C° 0 mm 3 mps 715 mmHg 68%
    07:00 +10°C° 0 mm 3 mps 715 mmHg 65%
    08:00 +12°C° 0 mm 3 mps 715 mmHg 63%
    09:00 +14°C° 0 mm 4 mps 715 mmHg 62%
    10:00 +16°C° 0 mm 5 mps 715 mmHg 60%
    11:00 +18°C° 0 mm 4 mps 715 mmHg 60%
    12:00 +18°C° 0 mm 4 mps 715 mmHg 60%
    13:00 +19°C° 0 mm 4 mps 714 mmHg 60%
    14:00 +19°C° 0 mm 3 mps 714 mmHg 61%
    15:00 +19°C° 0 mm 3 mps 713 mmHg 63%
    16:00 +18°C° 0 mm 3 mps 713 mmHg 65%
    17:00 +17°C° 0 mm 2 mps 713 mmHg 70%
    18:00 +16°C° 0 mm 2 mps 712 mmHg 75%
    19:00 +15°C° 0 mm 2 mps 712 mmHg 80%
    20:00 +15°C° 0 mm 2 mps 712 mmHg 82%
    21:00 +14°C° 0 mm 2 mps 712 mmHg 83%
    22:00 +14°C° 0 mm 2 mps 712 mmHg 85%
    23:00 +13°C° 0.2 mm 2 mps 711 mmHg 87%
    Show more